www.pogodaiklimat.ru

Погода и климат >> Архив погоды >> Южная Африка >> Порт Ноллоз


ПОГОДА в Порт Ноллоз

  • Прогноз погоды в Порт Ноллоз
  • Монитор погоды в Порт Ноллоз

АРХИВ ПОГОДЫ в Порт Ноллоз

Время (UTC), дата Ветер
(напр.,м/с)
 
Видим.   Явления Облачность Т
(С)
Тd
(С)
f
(%)
Тe
(С)
Тes
(С)
Комфортность P
(гПа)
Po
(гПа)
Тmin
(С)
Tmax
(С)
R
(мм)
R24
(мм)
S
(см)
15 14.05 штиль 0 н/о н/о +16.1 +12.6 80 +16 +16 1013.3 1012.4 +14.5 +17.7
18 14.05 В 1 н/о н/о +14.0 +13.3 96 +14 +14 1015.7 1014.8 +12.6 +18.1
21 14.05 З 3 н/о н/о +12.9 +12.4 97 +12 +12 1016.3 1015.4 +12.6 +18.1
00 15.05 В 1 н/о н/о +13.3 +12.9 97 +13 +13 1017.3 1016.4 +12.3 +18.1
03 15.05 В 2 н/о н/о +14.0 +13.3 96 +13 +13 1017.0 1016.1 +12.3 +18.1
06 15.05 В 2 н/о н/о +12.4 +11.4 94 +11 +11 1017.5 1016.6 +12.3
09 15.05 Ю 2 н/о н/о +15.2 +12.0 81 +15 +15 1018.0 1017.1 +12.0 +17.8
12 15.05 Ю 3 н/о н/о +15.7 +13.2 85 +15 +15 1016.5 1015.6 +12.0 +17.8
15 15.05 ЮВ 6 н/о н/о +14.8 +12.8 88 +13 +13 1015.7 1014.8 +14.7 +17.8
18 15.05 ЮВ 5 н/о н/о +13.4 +11.4 88 +11 +11 1016.4 1015.5 +13.4 +17.8
21 15.05 ЮВ 3 н/о н/о +12.3 +10.7 90 +11 +11 1016.8 1015.9 +12.3 +17.8
00 16.05 С 2 н/о н/о +10.7 +9.4 92 +9 +9 1016.7 1015.8 +10.5 +17.8
03 16.05 СЗ 2 н/о н/о +10.2 +9.2 94 +9 +9 1016.1 1015.2 +9.9 +17.8
06 16.05 В 2 н/о н/о +8.5 +7.7 95 +7 +7 1015.9 1015.0 +8.1
09 16.05 З 2 н/о н/о +13.8 +11.1 84 +14 +14 1016.2 1015.3 +8.1 +14.7
12 16.05 Ю 3 н/о н/о +16.3 +11.5 73 +16 +16 1013.5 1012.6 +8.1 +16.7
15 16.05 ЮВ 5 н/о н/о +16.1 +12.5 79 +15 +15 1012.7 1011.8 +16.1 +17.2
18 16.05 ЮВ 2 н/о н/о +12.7 +11.4 92 +12 +12 1012.7 1011.8 +12.7 +17.2
21 16.05 СЗ 3 н/о н/о +11.9 +11.1 95 +10 +10 1014.5 1013.6 +11.3 +17.2
00 17.05 СЗ 4 н/о н/о +12.7 +12.2 97 +11 +11 1014.9 1014.0 +11.3 +17.2
03 17.05 С 3 н/о н/о +14.3 +13.1 92 +13 +13 1014.7 1013.8 +11.3 +17.2
06 17.05 СЗ 2 н/о н/о +12.9 +11.6 92 +12 +12 1015.7 1014.8 +11.3
09 17.05 СЗ 3 н/о н/о +18.3 +11.6 65 +19 +19 1016.7 1015.8 +11.3 +18.4
12 17.05 З 3 н/о н/о +16.5 +12.3 76 +16 +16 1015.9 1015.0 +11.3 +18.7
15 17.05 СЗ 3 н/о н/о +15.2 +12.9 86 +14 +14 1016.5 1015.6 +14.2 +18.7
18 17.05 З 2 н/о н/о +13.7 +12.9 95 +13 +13 1018.1 1017.2 +13.5 +18.7
21 17.05 ЮЗ 1 н/о н/о +13.7 +12.2 91 +14 +14 1018.4 1017.5 +13.5 +18.7
00 18.05 С 1 н/о н/о +14.1 +11.8 86 +14 +14 1018.1 1017.2 +13.3 +18.7
03 18.05 ЮВ 1 н/о н/о +13.4 +11.3 87 +14 +14 1016.9 1016.0 +13.3 +18.7
06 18.05 ЮВ 1 н/о н/о +11.0 +10.0 94 +11 +11 1017.1 1016.2 +10.5
09 18.05 Ю 4 н/о н/о +14.3 +11.6 84 +13 +13 1017.3 1016.4 +10.3 +15.4
12 18.05 Ю 5 н/о н/о +14.1 +11.4 84 +12 +12 1014.4 1013.5 +10.3 +15.6
15 18.05 Ю 3 н/о н/о +13.4 +11.3 87 +12 +12 1012.9 1012.0 +13.4 +15.6
18 18.05 З 1 н/о н/о +11.8 +11.1 95 +12 +12 1014.0 1013.1 +11.6 +15.6
21 18.05 ЮЗ 2 н/о н/о +11.2 +10.7 97 +10 +10 1014.3 1013.4 +11.2 +15.6
00 19.05 С 1 н/о н/о +11.8 +11.3 97 +11 +11 1013.3 1012.4 +11.1 +15.6 0.2
03 19.05 СЗ 3 н/о н/о +10.5 +10.0 97 +9 +9 1013.6 1012.7 +10.5 +15.6
06 19.05 СЗ 3 н/о н/о +10.2 +9.9 98 +8 +8 1015.7 1014.8 +9.8 0.2
09 19.05 СЗ 4 н/о н/о +12.1 +11.6 97 +10 +10 1016.8 1015.9 +9.8 +12.3
12 19.05 З 5 н/о н/о +12.3 +11.0 92 +10 +10 1015.9 1015.0 +9.8 +14.6 0.2
15 19.05 С 3 н/о н/о +14.9 +11.5 80 +14 +14 1015.9 1015.0 +12.2 +15.3
18 19.05 С 3 н/о н/о +12.8 +9.8 82 +12 +12 1016.2 1015.3 +12.2 +15.6 0.2
21 19.05 С 2 н/о н/о +12.3 +9.1 81 +11 +11 1016.6 1015.7 +12.2 +15.6
00 20.05 С 3 н/о н/о +12.1 +9.3 83 +11 +11 1016.5 1015.6 +11.8 +15.6 0.2
03 20.05 С 3 н/о н/о +12.8 +9.8 82 +11 +11 1016.4 1015.5 +11.8 +15.6
06 20.05 СЗ 4 н/о н/о +12.9 +12.1 95 +11 +11 1019.1 1018.2 +11.8 1
09 20.05 СЗ 4 н/о н/о +13.9 +13.2 96 +12 +12 1022.1 1021.2 +11.8 +14.1
12 20.05 СЗ 4 н/о н/о +14.8 +14.1 96 +14 +14 1022.6 1021.7 +11.8 +14.8 4
15 20.05 З 1 н/о н/о +16.7 +13.8 83 +18 +18 1022.6 1021.7 +14.7 +17.0
18 20.05 штиль 0 н/о н/о +12.6 +11.6 94 +12 +12 1023.9 1023.0 +12.6 +17.0 4
21 20.05 В 2 н/о н/о +9.5 +8.8 95 +8 +8 1024.6 1023.7 +9.5 +17.0
00 21.05 В 2 н/о н/о +8.5 +6.8 89 +7 +7 1024.2 1023.3 +8.4 +17.0 4
03 21.05 В 3 н/о н/о +8.4 +6.8 90 +6 +6 1023.5 1022.6 +7.9 +17.0
06 21.05 В 4 н/о н/о +8.0 +5.8 86 +5 +5 1024.0 1023.1 +7.8 4
09 21.05 В 5 н/о н/о +16.5 +6.1 50 +16 +16 1024.2 1023.3 +7.8 +16.5
12 21.05 ЮВ 5 н/о н/о +17.4 +7.8 53 +17 +17 1021.5 1020.6 +7.8 +21.1

 

Местоположение метеостанции Порт Ноллоз (Южная Африка): широта -29.23 долгота 16.87 высота над уровнем моря 10 м.

В архиве по умолчанию представлена погода в Порт Ноллоз за последнюю неделю. Архивные данные за месяц целиком и за предыдущие месяцы, начиная с января 2011 года, Вы можете получить, выбрав интересующий диапазон дат из раскрывающегося списка и нажав кнопку "Ввод!".


*Определитесь, кто Вы:
робот инопланетянин человек

Внимание! Время в таблицах - всемирное. Для получения местного времени необходимо прибавить поправку, которая равна 2 ч.

Смотрите также архив погоды в соседних городах и на ближайших метеорологических станциях:

Погода в Александер-Бее (Южная Африка) (82 км)
Погода в Виулсдрифе (Южная Африка) (92 км)
Погода в Спрингбоке (Южная Африка) (111 км)
Погода в Коингнаасе (Южная Африка) (115 км)
Погода в Портервилле (Южная Африка) (222 км)
Погода в Пофаддере (Южная Африка) (244 км)
Погода в Фридендале (Южная Африка) (312 км)
Погода в Ниеувоудтвилле (Южная Африка) (317 км)
Погода в Китмансхупе (Намибия) (324 км)
Погода в Людерице (Намибия) (337 км)

Пояснения к столбцам:

Ветер - указаны скорость ветра в м/с - средняя за 10 мин, порывы в срок и между сроками (в фигурных скобках) и направление, откуда дует ветер: С - северный, СВ - северо-восточный, В - восточный, ЮВ - юго-восточный, Ю - южный, ЮЗ - юго-западный, З - западный, СЗ - северо-западный.
Видимость - горизонтальная дальность видимости в метрах или километрах. При видимости от 1 до 10 км при отсутствии осадков обычно наблюдается дымка, при ухудшении видимости до 1 км и менее - туман. В сухую погоду видимость может ухудшаться дымом, пылью или мглою.
Явления - указаны атмосферные явления, наблюдавшиеся в срок или в последний час перед сроком; фигурными скобками обозначены явления, наблюдавшиеся между сроками (за 1-3 часа до срока); квадратными скобками обозначены град или гололедные отложения с указанием их диаметра в мм.
Облачность - указаны через наклонную черту общая и нижняя облачность в баллах и высота нижней границы облаков в метрах; квадратными скобками обозначены формы облаков: Ci - перистые, Cs - перисто-слоистые, Cc - перисто-кучевые, Ac - высококучевые, As - высокослоистые, Sc - слоисто-кучевые, Ns - слоисто-дождевые, Cu - кучевые, Cb - кучево-дождевые. Подробнее классификацию облаков см. в Атласе облаков (PDF).
T - Температура воздуха - температура, измеренная на высоте 2 м над землей.
Td - Температура точки росы - температура, при понижении до которой содержащийся в воздухе водяной пар достигнет насыщения.
f - Относительная влажность воздуха - влажноcть воздуха, измеренная на высоте 2 м над землей.
Te - Эффективная температура - температура, которую ощущает одетый по сезону человек в тени. Характеристика душности погоды. При расчете учитывается влияние влажности воздуха и скорости ветра на теплоощущения человека.
Tes - Эффективная температура на солнце - температура, которую ощущает человек, с поправкой на солнечный нагрев. Характеристика знойности погоды. Зависит от высоты солнца над горизонтом, облачности и скорости ветра. Ночью, в пасмурную погоду, а также при ветре 12 м/с и более поправка равна нулю.
P - Атмосферное давление - приведенное к уровню моря атмосферное давление.
Po - Атмосферное давление - измеренное на уровне метеостанции атмосферное давление.
Tmin - Минимальная температура - минимум температуры воздуха на высоте 2 м над землей.
Tmax - Максимальная температура - максимум температуры воздуха на высоте 2 м над землей.
R - Количество осадков - Количество выпавших осадков за период времени, мм. При наведении курсора мыши на число - период времени, за который выпало указанное количество осадков.
R24 - Количество осадков - Количество выпавших осадков за 24 часа, мм.
S - Снежный покров - Высота снежного покрова, см. При наведении курсора мыши на число - состояние снежного покрова и степень покрытия местности в баллах.